Weather History for KCLE - October, 2012

Change the Weather History Date:

Saturday, October 27, 2012

  Actual Average Record
Temperature  
Mean Temperature 48 °F 50 °F  
Max Temperature 50 °F 59 °F 78 °F (1927)
Min Temperature 46 °F 42 °F 23 °F (1962)
Degree Days  
Heating Degree Days 17 15  
Month to date heating degree days 286 295  
Since 1 July heating degree days 425 398  
Cooling Degree Days 0 0  
Month to date cooling degree days 10 10  
Year to date cooling degree days 1096 814  
Moisture  
Dew Point 44 °F    
Average Humidity 85    
Maximum Humidity 93    
Minimum Humidity 77    
Precipitation  
Precipitation 0.47 in 0.10 in 0.96 in (2006)
Month to date precipitation 4.50 2.67  
Year to date precipitation 34.03 32.02  
Snow  
Snow 0.00 in 0.00 in - ()
Month to date snowfall 0.0 0.1  
Since 1 July snowfall 0.0 0.1  
Since 1 September snowfall 0.0 0.1  
Snow Depth 0.00 in    
Sea Level Pressure  
Sea Level Pressure 30.12 in    
Wind  
Wind Speed 16 mph (NNE)    
Max Wind Speed 23 mph    
Max Gust Speed 30 mph    
Visibility 8 miles    
Events Rain    
T = Trace of Precipitation, MM = Missing Value Source: NWS Daily Summary

Daily Weather History Graph

Daily Weather History Graph

Search for Another Location

Airport or City:

Trip Planner

Search our weather history database for the weather conditions in past years. The results will help you decide how hot, cold, wet, or windy it might be!

Date:

Astronomy

Oct. 27, 2012 Rise Set
Actual Time 7:53 AM EDT 6:28 PM EDT
Civil Twilight 7:25 AM EDT 6:56 PM EDT
Nautical Twilight 6:52 AM EDT 7:29 PM EDT
Astronomical Twilight 6:20 AM EDT 8:01 PM EDT
Moon 5:14 PM EDT (10/27) 5:46 AM EDT (10/27)
Length of Visible Light 11h 31m
Length of Day
10h 34m
Waxing Gibbous, 96% of the Moon is Illuminated
Oct 27
Waxing Gibbous
Oct 29
Full
Nov 6
Last Quarter
Nov 13
New
Nov 20
First Quarter

Hourly Weather History & Observations

Time (EDT) Temp. Windchill Dew Point Humidity Pressure Visibility Wind Dir Wind Speed Gust Speed Precip Events Conditions
12:19 AM 48.2 °F - 44.6 °F 87% 30.15 in 10.0 mi NE 15.0 mph 24.2 mph 0.02 in Rain Light Rain
12:28 AM 48.2 °F - 44.6 °F 87% 30.16 in 9.0 mi NE 13.8 mph - 0.02 in Rain Light Rain
12:51 AM 48.2 °F - 44.6 °F 87% 30.14 in 9.0 mi NE 17.3 mph - N/A Rain Light Rain
1:12 AM 46.4 °F 40.4 °F 44.6 °F 93% 30.14 in 6.0 mi NE 13.8 mph - 0.02 in Rain Rain
1:42 AM 46.4 °F 40.1 °F 44.6 °F 93% 30.13 in 6.0 mi NNE 15.0 mph - 0.06 in Rain Light Rain
1:51 AM 46.9 °F - 44.1 °F 90% 30.14 in 7.0 mi NNE 13.8 mph - 0.06 in Rain Light Rain
2:51 AM 46.9 °F - 44.1 °F 90% 30.14 in 6.0 mi NNE 17.3 mph 23.0 mph 0.08 in Rain Rain
3:51 AM 46.9 °F - 44.1 °F 90% 30.12 in 6.0 mi NNE 17.3 mph - 0.11 in Rain Rain
4:28 AM 46.4 °F 39.5 °F 42.8 °F 87% 30.10 in 10.0 mi NE 17.3 mph 23.0 mph 0.03 in Rain Light Rain
4:51 AM 46.0 °F 39.3 °F 43.0 °F 89% 30.11 in 10.0 mi NNE 16.1 mph - 0.05 in Rain Light Rain
5:51 AM 46.9 °F - 44.1 °F 90% 30.09 in 9.0 mi NNE 16.1 mph 25.3 mph 0.01 in Rain Light Rain
6:51 AM 46.0 °F 39.6 °F 43.0 °F 89% 30.10 in 10.0 mi NE 15.0 mph - 0.04 in Rain Light Rain
7:51 AM 46.9 °F - 44.1 °F 90% 30.10 in 10.0 mi NNE 16.1 mph - 0.02 in Rain Light Rain
8:51 AM 46.9 °F - 44.1 °F 90% 30.12 in 10.0 mi North 15.0 mph - 0.03 in Rain Light Rain
9:48 AM 46.4 °F 40.1 °F 44.6 °F 93% 30.11 in 6.0 mi North 15.0 mph - 0.02 in Rain Light Rain
9:51 AM 46.4 °F 39.8 °F 44.6 °F 93% 30.11 in 6.0 mi North 16.1 mph - N/A Rain Light Rain
9:58 AM 46.4 °F 39.2 °F 44.6 °F 93% 30.12 in 6.0 mi North 18.4 mph - 0.00 in Rain Light Rain
10:17 AM 46.4 °F 40.7 °F 44.6 °F 93% 30.12 in 2.0 mi North 12.7 mph 21.9 mph 0.01 in Rain Light Rain
10:22 AM 46.4 °F 40.7 °F 44.6 °F 93% 30.12 in 2.0 mi North 12.7 mph 21.9 mph N/A Rain Light Rain
10:26 AM 46.4 °F 40.4 °F 44.6 °F 93% 30.12 in 3.0 mi North 13.8 mph - 0.01 in Rain Light Rain
10:42 AM 46.4 °F 40.4 °F 44.6 °F 93% 30.11 in 3.0 mi North 13.8 mph 23.0 mph 0.02 in Rain Light Rain
10:51 AM 46.9 °F - 45.0 °F 93% 30.13 in 3.0 mi North 13.8 mph - 0.02 in Rain Light Rain
11:15 AM 48.2 °F - 44.6 °F 87% 30.11 in 3.0 mi NNE 11.5 mph 20.7 mph 0.02 in Rain Light Rain
11:25 AM 48.2 °F - 44.6 °F 87% 30.12 in 3.0 mi NNE 16.1 mph 21.9 mph 0.02 in   Overcast
11:51 AM 48.0 °F - 45.0 °F 89% 30.14 in 10.0 mi North 11.5 mph 21.9 mph 0.02 in   Overcast
12:51 PM 48.0 °F - 45.0 °F 89% 30.12 in 5.0 mi North 15.0 mph 21.9 mph N/A   Overcast
1:17 PM 48.2 °F - 44.6 °F 87% 30.10 in 10.0 mi North 13.8 mph - N/A   Overcast
1:51 PM 48.0 °F - 45.0 °F 89% 30.11 in 10.0 mi North 12.7 mph - 0.00 in Rain Light Rain
2:51 PM 48.9 °F - 44.1 °F 83% 30.09 in 10.0 mi North 17.3 mph 24.2 mph 0.00 in   Overcast
3:00 PM 48.2 °F - 44.6 °F 87% 30.09 in 10.0 mi North 16.1 mph 21.9 mph N/A   Overcast
3:25 PM 48.2 °F - 44.6 °F 87% 30.09 in 10.0 mi North 15.0 mph - 0.00 in Rain Light Rain
3:42 PM 48.2 °F - 44.6 °F 87% 30.09 in 10.0 mi North 12.7 mph 20.7 mph 0.00 in   Overcast
3:51 PM 48.9 °F - 44.1 °F 83% 30.10 in 10.0 mi North 16.1 mph - 0.00 in   Overcast
4:51 PM 48.9 °F - 43.0 °F 80% 30.11 in 10.0 mi North 18.4 mph 24.2 mph N/A   Overcast
5:51 PM 48.9 °F - 42.1 °F 77% 30.11 in 10.0 mi North 12.7 mph 21.9 mph N/A   Overcast
6:51 PM 48.9 °F - 41.0 °F 74% 30.13 in 10.0 mi North 19.6 mph 25.3 mph N/A   Overcast
7:51 PM 48.9 °F - 42.1 °F 77% 30.13 in 10.0 mi North 16.1 mph - N/A   Overcast
8:51 PM 48.2 °F - 41.0 °F 76% 30.11 in 10.0 mi North 18.4 mph 24.2 mph N/A   Overcast
9:51 PM 48.9 °F - 41.0 °F 74% 30.14 in 10.0 mi NNE 15.0 mph 24.2 mph N/A   Overcast
10:51 PM 48.9 °F - 41.0 °F 74% 30.14 in 10.0 mi NNE 17.3 mph 26.5 mph N/A   Overcast
11:51 PM 48.0 °F - 41.0 °F 77% 30.14 in 10.0 mi NNE 18.4 mph 26.5 mph N/A   Overcast